Regional Weather Roundup
Issued by NWS

Home | Current Version | Previous Version | Graphics & Text | Print | Product List | Glossary On
Versions: 1 2 3 4 5 6 7 8 9 10 11 12 13 14 15 16 17 18 19 20 21 22 23 24 25 26 27 28 29 30 31 32 33 34 35 36 37 38 39 40 41 42 43 44 45 46 47 48 49 50
000
ASUS43 KMPX 192310
RWRMN
WEATHER ROUNDUP FOR MINNESOTA
NATIONAL WEATHER SERVICE TWIN CITIES/CHANHASSEN MN
600 PM CDT FRI SEP 19 2014


NOTE: "FAIR" INDICATES FEW OR NO CLOUDS BELOW 12,000 FEET WITH NO
SIGNIFICANT WEATHER AND/OR OBSTRUCTIONS TO VISIBILITY. N/A MEANS
CURRENT SKY AND/OR WEATHER CONDITIONS ARE NOT AVAILABLE.

MNZ060>063-068>070-200000-
   Twin Cities Metro

CITY           SKY/WX    TMP DP  RH WIND       PRES   REMARKS
TWIN CITIES    PTSUNNY   75  63  66 N5        29.67S
ST PAUL        PTSUNNY   73  64  73 N6        29.67S
CRYSTAL        PTSUNNY   74  63  68 E3        29.66S
BLAINE         PTSUNNY   73  66  78 E6        29.66F
LAKEVILLE      CLOUDY    79  64  61 S7        29.67S
EDEN PRAIRIE   CLOUDY    74  65  73 N6        29.66S
SOUTH ST PAUL  PTSUNNY   81  64  55 S5        29.66S
LAKE ELMO      PTSUNNY   72  64  78 N5        29.69R
$$
MNZ001>005-007-008-013>017-022>024-027-028-200000-
   Northwest Minnesota

CITY           SKY/WX    TMP DP  RH WIND       PRES   REMARKS
BEMIDJI        CLOUDY    66  62  85 SW6       29.60R
HALLOCK        SUNNY     79  63  57 S5        29.45F
ROSEAU         MOSUNNY   73  64  73 SW7       29.52S
WARROAD        PTSUNNY   70  64  83 CALM      29.53F
THIEF RVR FALL MOSUNNY   73  64  73 S9        29.53S
CROOKSTON      SUNNY     77  66  69 S14       29.52S
FOSSTON        MOSUNNY   73  63  68 SW12      29.57S
DETROIT LAKES  SUNNY     72  64  78 SW9       29.61F
MOORHEAD       SUNNY     79  68  69 SW7       29.57S
PARK RAPIDS    CLOUDY    67  62  84 SW12      29.62R
MAHNOMEN       FAIR      73  65  76 S12       29.58S
$$
MNZ006-009>011-018-025>026-200000-
   North Central Minnesota

CITY           SKY/WX    TMP DP  RH WIND       PRES   REMARKS
BAUDETTE       MOSUNNY   68  63  84 SW9       29.54R
FLAG ISLAND    PTSUNNY   63  61  94 SE3       29.52R FOG
INTL FALLS     CLOUDY    64  62  93 SW6       29.57R
WASKISH        CLOUDY    68  64  88 CALM      29.57S
BIG FORK       CLOUDY    63  61  94 S8        29.61R FOG
LONGVILLE      CLOUDY    63  61  94 S7        29.62R FOG
GRAND RAPIDS   CLOUDY    61  57  88 S8        29.63R
CRANE LAKE     CLOUDY    61  57  88 S5        29.62R
ORR            CLOUDY    61  57  88 SW6       29.59R FOG
COOK           CLOUDY    61  59  94 SW8       29.62S FOG
WALKER         CLOUDY    65  61  88 SW8       29.61R
$$
MNZ012-019>021-037-200000-
   Northeast Minnesota

CITY           SKY/WX    TMP DP  RH WIND       PRES   REMARKS
DULUTH         CLOUDY    63  59  87 S16G22    29.63F FOG
ELY            CLOUDY    59  57  94 SW8G18    29.62R
HIBBING        CLOUDY    62  59  90 SW6       29.63S FOG
EVELETH        CLOUDY    59  59 100 SW9       29.64R FOG
DULUTH HARBOR  RAIN      64  61  88 SW8       29.65F
TWO HARBORS    CLOUDY    61  55  82 SW9G18    29.60F HAZE
SILVER BAY     CLOUDY    59  59 100 SW7       29.62F FOG
GRAND MARAIS     N/A     53  52  96 CALM      29.63F
G MARAIS ARPRT CLOUDY    57  54  88 S15G23    29.63F FOG
$$
MNZ029>031-032-039>041-046>048-054>057-064-200000-
   West Central Minnesota

CITY           SKY/WX    TMP DP  RH WIND       PRES   REMARKS
FERGUS FALLS   SUNNY     73  63  68 SW10      29.61S
WHEATON        MOSUNNY   73  64  73 S6        29.64R
MORRIS         MOSUNNY   75  66  73 S6        29.64R
ALEXANDRIA     MOSUNNY   69  65  86 SW9       29.67R
ELBOW LAKE     FAIR      72  65  79 SW9       29.63S
WADENA         PTSUNNY   68  63  83 SW9       29.62S
GLENWOOD       PTSUNNY   72  64  78 MISG      29.67R
APPLETON       PTSUNNY   79  66  65 W5        29.64R
BENSON         PTSUNNY   75  66  73 CALM      29.65R
ORTONVILLE     MOSUNNY   79  66  65 W3        29.65R
MADISON        PTSUNNY   81  70  69 SW5       29.66R
WILLMAR        FAIR      75  64  69 CALM      29.67S
$$
MNZ033>034-036-042>043-049>051-058-059-200000-
   Central Minnesota

CITY           SKY/WX    TMP DP  RH WIND       PRES   REMARKS
ST CLOUD       LGT RAIN  69  64  84 S3        29.66F
SAUK CENTRE    FAIR      69  65  86 S3        29.67R
PAYNESVILLE    CLOUDY    68  64  88 SE3       29.66F
AITKIN         CLOUDY    66  61  82 S10G16    29.62F
PINE RIVER     CLOUDY    63  63 100 S7        29.66S FOG
BRAINERD       CLOUDY    62  61  96 S9        29.64F FOG
STAPLES        CLOUDY    64  63  94 S9        29.63F
LONG PRAIRIE   PTSUNNY   64  63  94 S6        29.66S FOG
LITTLE FALLS   PTSUNNY   64  61  88 S5        29.66R FOG
LITCHFIELD     CLOUDY    73  68  83 CALM      29.68R
BUFFALO        CLOUDY    71  63  74 CALM      29.67S
MAPLE LAKE     CLOUDY    70  65  85 CALM      29.67S
$$
MNZ037-044-045-052-053-200000-
   East Central Minnesota

CITY           SKY/WX    TMP DP  RH WIND       PRES   REMARKS
PRINCETON      CLOUDY    70  64  83 SE6       29.65F
MORA           LGT RAIN  64  61  88 CALM      29.67S
CAMBRIDGE      LGT RAIN  70  59  68 SE3       29.64F
RUSH CITY      CLOUDY    66  61  83 SE3       29.66F
MOOSE LAKE     CLOUDY    63  61  94 S5        29.64R FOG
HINCKLEY       LGT RAIN  64  63  94 CALM      29.65F
CLOQUET        CLOUDY    63  61  94 S12       29.64F
MCGREGOR       CLOUDY    63  61  94 S13G20    29.64F
$$
MNZ071>073-080-081-089-090-097-098-200000-
   Southwest Minnesota

CITY           SKY/WX    TMP DP  RH WIND       PRES   REMARKS
MONTEVIDEO     PTSUNNY   79  66  65 W5        29.66R
GRANITE FALLS  CLOUDY    79  66  65 W7        29.67R
CANBY          PTSUNNY   78  66  68 W6        29.68R
MARSHALL       CLOUDY    81  64  57 W8        29.66R
REDWOOD FALLS  CLOUDY    81  67  62 SW6       29.65R
OLIVIA         CLOUDY    79  68  69 W5        29.66R
PIPESTONE      PTSUNNY   82  64  54 W9        29.72R
WINDOM         MOSUNNY   84  64  51 SW13G21   29.69S
WORTHINGTON    MOSUNNY   84  64  51 SW14G22   29.72R
JACKSON        MOSUNNY   82  63  51 SW14G26   29.73R
TRACY          PTSUNNY   81  67  63 SW6       29.68R
SLAYTON        MOSUNNY   82  64  53 SW10      29.71R
$$
MNZ065>067-074>077-082>085-091>093-200000-
   South Central Minnesota

CITY           SKY/WX    TMP DP  RH WIND       PRES   REMARKS
MANKATO        PTSUNNY   82  63  51 SW12      29.68S
NEW ULM        PTSUNNY   81  66  61 SW6       29.67S
FAIRMONT       MOSUNNY   82  57  42 SW16G22   29.72S
GLENCOE        CLOUDY    78  64  62 CALM      29.66S
FARIBAULT      PTSUNNY   82  61  47 S8G16     29.70R
OWATONNA       MOSUNNY   81  63  54 S17G25    29.72R
WASECA         PTSUNNY   79  59  50 S16       29.73R
ALBERT LEA     MOSUNNY   81  64  57 S9G18     29.75R
$$
MNZ078>079-086>088-094>096-200000-
   Southeast Minnesota

CITY           SKY/WX    TMP DP  RH WIND       PRES   REMARKS
ROCHESTER      MOSUNNY   75  61  61 S16G28    29.78R
RED WING       CLOUDY    79  61  53 S9        29.69S
STANTON        CLOUDY    82  63  53 S13       29.67S
DODGE CENTER   MOSUNNY   77  64  65 S18G25    29.75S
WINONA         SUNNY     73  59  60 SW10G21   29.77R
AUSTIN         SUNNY     75  64  69 S12       29.77R
PRESTON        SUNNY     73  64  73 S18G32    29.77R
$$
ABBREVIATIONS USED IN REMARKS
   TC - TEMPERATURES IN CELSIUS
  WCI - WIND CHILL INDEX
   HX - HEAT INDEX
  VSB - VISIBILITY
$$



USA.gov is the U.S. government's official web portal to all federal, state and local government web resources and services.